weather.gov     
National Weather Service

Miscellaneous Local Product
NWS Homepage
This page is being discontinued on March 12, 2014.
The same data is available at this site. Please update your bookmarks.
Thank you, and we apologize for the inconvenience.
Please send an email to SR-SRH.Webmaster@noaa.gov with any concerns.


Current Version
Previous Version:    01  02  03  04  05  06  07  08  09  10  11  12  13  14  15  16  17  18  19  20  21  22  23  24  25  26  27  28  29  30  
   31  32  33  34  35  36  37  38  39  40  41  42  43  44  45  46  47  48  49  50  51  52  53  54  55  56  57  58  59  60  
[Printable]
836
AXUS43 KGID 241802
MISGRI

GID CWA HOURLY WEATHER ROUNDUP
NATIONAL WEATHER SERVICE HASTINGS NE
100 PM CDT FRI OCT 24 2014

NOTE: "FAIR" INDICATES FEW OR NO CLOUDS BELOW 12,000 FEET WITH NO
SIGNIFICANT WEATHER AND/OR OBSTRUCTIONS TO VISIBILITY.

...SOUTH CENTRAL NEBRASKA...

CITY           SKY/WX    TMP DP  RH WIND       PRES   REMARKS
GRAND ISLAND   CLOUDY    66  53  63 W6        29.96F
HASTINGS       CLOUDY    67  51  56 W9        29.97F
KEARNEY        CLOUDY    72  45  37 W9        29.99S
ORD            PTSUNNY   68  45  43 NW7       29.96S
YORK           CLOUDY    66  55  68 W7        29.95F
AURORA         CLOUDY    67  50  54 W6        29.96F
LEXINGTON      PTSUNNY   73  43  34 W10       30.00F
HOLDREGE       PTSUNNY   77  44  31 NW10      29.99F
HEBRON         CLOUDY    70  58  66 SW7       29.96F

...NEBRASKA PANHANDLE...

CITY           SKY/WX    TMP DP  RH WIND       PRES   REMARKS
CHADRON        MOSUNNY   73  36  25 W13       30.03F
ALLIANCE       SUNNY     76  37  24 W15       30.06F
SCOTTSBLUFF    MOSUNNY   76  32  20 W20       30.08F
SIDNEY         CLOUDY    76  35  22 NW14G25   30.12S

...WESTERN AND NORTH CENTRAL NEBRASKA...

CITY           SKY/WX    TMP DP  RH WIND       PRES   REMARKS
VALENTINE      MOSUNNY   72  37  28 NW6       29.98S
AINSWORTH      PTSUNNY   71  36  27 NW5       29.98S
ONEILL         CLOUDY    68  44  41 N6        29.97S
BROKEN BOW     PTSUNNY   77  41  27 NW15      29.98S
IMPERIAL       PTSUNNY   78  36  21 NW5       30.06F
NORTH PLATTE   MOSUNNY   73  42  32 W9        30.02F
MCCOOK         MOSUNNY   75  42  30 W6        30.03F

...EASTERN NEBRASKA...

CITY           SKY/WX    TMP DP  RH WIND       PRES   REMARKS
NORFOLK        CLOUDY    69  50  50 NW3       29.94R
SO SIOUX CITY  MOSUNNY   70  51  51 VRB3      29.91F
TEKAMAH        CLOUDY    70  57  63 SW6       29.92S
COLUMBUS       CLOUDY    66  54  63 W5        29.96S
ALBION         CLOUDY    65  50  57 CALM      29.95S
OMAHA EPPLEY   CLOUDY    71  59  65 SW7       29.92F
OFFUTT AFB     CLOUDY    71  66  85 VRB7      29.92F
MILLARD        CLOUDY    70  60  71 SW5       29.93S
LINCOLN        CLOUDY    71  57  61 SW9       29.95F
NEBRASKA CITY  CLOUDY    69  62  79 SW9       29.95F
BEATRICE       CLOUDY    68  61  79 SW10      29.95F
FALLS CITY     CLOUDY    72  62  71 SW13      29.95F

...NORTHERN KANSAS...

CITY           SKY/WX    TMP DP  RH WIND       PRES   REMARKS
GOODLAND       MOSUNNY   86  34  15 NW7       30.10S
HILL CITY      SUNNY     84  49  29 VRB3      30.02F
NORTON         CLEAR     81  34  18 W8        30.01
PHILLIPSBURG   SUNNY     75  52  43 SW5       30.01F
SMITH CENTER   SUNNY     66  54  63 W7        30.01F
BELOIT         SUNNY     72  61  68 S3        29.99F
HAYS           SUNNY     79  59  50 SW8       30.03F
RUSSELL        SUNNY     78  59  51 SW13      30.01F
CONCORDIA      CLOUDY    72  62  71 SW9       30.00S
SALINA         CLOUDY    73  63  70 S9        30.02F
TOPEKA         CLOUDY    72  63  73 SW8       30.01F




U.S. Dept. of Commerce
NOAA National Weather Service
1325 East West Highway
Silver Spring, MD 20910
E-mail: w-nws.webmaster@noaa.gov
Page last modified: May 16, 2007
NATIONAL WEATHER SERVICE: for Safety, for Work, for Fun - FOR LIFE